FLOCK 3K-7 (43902 NORAD) Tracking and Keplerian Element Data

This shows tracking and keplerian element data for the satellite.

Feedback or suggestion? Click here.




ElementValue
Catalog43902
NameFLOCK 3K-7
Epoch Orbit316
Epoch Day16.83514752
Epoch Year2019
RAAN286.1743
Inclination97.2995
Eccentricity0.0023037
Argument of Perigee167.2907
Mean Anonmoly192.8916
Mean Motion15.23678709
Decay Rate1.462E-05
L11 43902U 18111AC 19016.83514752 .00001462 00000-0 63428-4 0 9992
L22 43902 97.2995 286.1743 0023037 167.2907 192.8916 15.23678709 3163

Live tracking and technical data element details for FLOCK 3K-7 (NORAD 43902). FLOCK 3K-7 can be tracked NOW for your location showing map with azimuth and elevation plus other details from your city location.

Track the satellite on the map from your city or location and see movement details for azimuth, elevation, latitude, longitude, range, height, and movement on the map or in text.







IsCatalogInMostPopularTable: catalog: 43902, numindb: 17
Update: records affected: 1



GetName: 43902 FLOCK 3K-7

Hit Count: updated at: Thu, 17 Jan 2019 15:34:37 GMT